Precipitable_Water
0.41 0.42 0.43 0.45 0.47 0.50 0.53 0.56 0.59 0.60 0.59 0.56 0.54 0.53 0.60 0.55 0.51 0.47 0.48 0.50 0.51 0.50
0.47 0.50 0.52 0.56 0.58 0.58 0.60 0.61 0.62 0.62 0.61 0.62 0.61 0.59 0.59 0.61 0.62 0.60 0.54 0.52 0.55 0.55
0.56 0.58 0.58 0.55 0.52 0.50 0.49 0.49 0.49 0.50 0.51 0.52 0.54 0.57 0.59 0.59 0.61 0.62 0.61 0.58 0.57 0.57
0.53 0.48 0.46 0.43 0.44 0.42 0.42 0.42 0.41 0.41 0.40 0.41 0.42 0.45 0.47 0.51 0.56 0.57 0.58 0.59 0.60 0.59
0.47 0.44 0.41 0.38 0.38 0.40 0.40 0.42 0.43 0.45 0.44 0.43 0.43 0.42 0.41 0.42 0.45 0.47 0.52 0.54 0.55 0.58
0.42 0.38 0.36 0.37 0.39 0.40 0.41 0.43 0.46 0.46 0.45 0.44 0.45 0.44 0.43 0.41 0.41 0.41 0.42 0.48 0.51 0.51
0.39 0.37 0.37 0.39 0.40 0.41 0.42 0.43 0.45 0.46 0.46 0.46 0.46 0.45 0.44 0.44 0.42 0.42 0.43 0.43 0.49 0.53
0.38 0.39 0.40 0.40 0.40 0.41 0.41 0.43 0.46 0.45 0.44 0.43 0.43 0.44 0.43 0.43 0.42 0.42 0.41 0.42 0.44 0.51
0.39 0.39 0.39 0.39 0.40 0.40 0.43 0.43 0.44 0.44 0.44 0.44 0.44 0.44 0.45 0.43 0.42 0.42 0.42 0.40 0.41 0.46
0.40 0.38 0.38 0.39 0.39 0.40 0.42 0.44 0.44 0.44 0.43 0.42 0.42 0.43 0.43 0.43 0.43 0.42 0.42 0.41 0.40 0.43
0.38 0.38 0.38 0.38 0.38 0.40 0.42 0.42 0.41 0.41 0.40 0.40 0.40 0.41 0.42 0.43 0.43 0.42 0.42 0.42 0.41 0.41
0.40 0.39 0.37 0.37 0.38 0.42 0.43 0.39 0.38 0.39 0.38 0.37 0.38 0.41 0.41 0.41 0.40 0.39 0.40 0.39 0.42 0.42
0.41 0.39 0.37 0.38 0.42 0.44 0.40 0.37 0.38 0.38 0.39 0.40 0.39 0.41 0.41 0.40 0.39 0.38 0.40 0.40 0.42 0.45
0.40 0.39 0.38 0.39 0.44 0.43 0.38 0.37 0.36 0.38 0.40 0.41 0.42 0.43 0.42 0.41 0.39 0.38 0.39 0.39 0.39 0.46
Wind_Speed
37 38 38 39 40 40 39 39 41 41 42 42 41 40 37 41 40 39 37 37 34 31
36 37 38 36 36 37 37 38 39 39 39 39 38 38 39 36 38 38 39 38 37 35
34 35 36 36 36 36 37 33 32 31 30 30 32 37 37 37 35 36 36 36 37 36
35 36 35 33 32 31 30 29 29 29 29 28 28 29 33 34 37 36 36 37 37 38
33 33 31 30 29 29 28 28 26 25 24 24 24 24 27 31 34 37 39 40 39 39
34 31 30 30 29 29 28 27 25 24 24 22 21 21 22 25 29 31 37 40 42 41
33 31 31 31 31 29 27 25 24 23 21 22 22 22 23 24 25 27 29 34 38 39
33 31 31 31 30 28 26 24 22 20 19 19 19 20 21 23 24 26 29 32 35 38
33 33 32 31 30 27 24 23 20 18 16 15 14 16 17 19 21 24 28 29 32 36
34 34 33 31 28 25 24 23 21 18 14 11 7 7 11 15 17 20 24 28 30 34
35 35 33 31 27 26 26 24 21 16 12 8 5 7 14 16 16 18 22 25 28 36
37 35 34 31 29 28 27 25 20 15 13 12 11 13 14 14 15 17 20 26 28 36
37 36 34 32 31 29 28 24 20 19 19 19 18 15 13 13 16 19 21 28 31 35
39 37 35 34 33 31 28 26 26 26 25 23 19 16 15 15 18 22 24 29 33 38
Wind_Direction
305 302 300 298 295 292 290 287 284 280 276 271 266 262 260 253 250 246 243 240 237 234
310 308 305 303 301 297 294 292 288 284 277 269 265 260 256 252 246 243 239 236 233 230
319 316 312 308 305 302 298 294 291 287 281 275 267 258 252 247 242 239 235 232 228 226
325 320 317 314 312 309 305 300 294 288 283 276 270 261 248 244 239 236 232 230 226 224
332 329 327 324 320 316 311 306 300 293 285 277 269 263 251 244 239 235 232 228 224 221
337 335 332 329 325 322 316 310 304 296 287 278 270 260 251 243 237 236 230 225 222 217
341 339 336 333 329 327 324 317 311 302 292 280 268 260 252 242 235 229 223 218 212 209
346 344 342 340 337 333 330 326 319 311 300 287 272 258 248 239 232 225 217 213 208 205
350 349 347 345 344 342 341 338 335 327 316 303 279 255 239 230 221 211 206 202 200 200
356 354 353 352 353 354 352 348 344 339 334 327 307 236 205 189 185 186 189 191 192 188
1 0 0 0 1 359 357 356 354 353 359 16 62 129 152 160 166 171 177 179 182 183
5 6 7 8 7 5 5 5 11 32 49 59 88 115 134 149 159 167 169 174 173 175
12 13 14 14 15 14 16 26 44 58 65 75 85 98 115 132 146 150 156 161 164 166
20 20 20 21 22 24 34 52 66 70 72 73 76 85 98 116 139 145 145 153 156 158